Location: Newark
(48.2308°N, 120.8549°W)
Time: 18:49:10
(UTC+00:00)

Courier 1B - Visible Passes

Search period start: 06 June 2020 00:00
Search period end: 16 June 2020 00:00
Orbit: 963 x 1209 km, 28.3° (Epoch: 05 June)

Date Brightness Start Highest point End Pass type
(mag) Time Alt. Az. Time Alt. Az. Time Alt. Az.
06 Jun 9.3 05:48:39 10° SSW 05:50:35 13° S 05:50:35 13° S visible
07 Jun 9.3 04:56:26 10° S 04:58:16 11° SSE 05:00:06 10° SSE visible
07 Jun 9.6 06:47:08 10° SSW 06:47:31 11° SSW 06:47:31 11° SSW visible
08 Jun 9.2 05:53:55 10° SSW 05:57:19 14° S 05:57:19 14° S visible
09 Jun 9.3 05:00:58 10° SSW 05:03:58 13° S 05:06:58 10° SE visible
09 Jun 9.5 06:53:23 10° SW 06:53:51 11° SSW 06:53:51 11° SSW visible
10 Jun 9.2 05:59:52 10° SSW 06:03:11 14° S 06:03:23 14° S visible
11 Jun 9.3 05:06:33 10° SSW 05:09:44 14° S 05:12:49 10° SSE visible
12 Jun 9.4 06:06:35 10° SSW 06:08:58 12° S 06:09:05 12° S visible
13 Jun 9.4 05:12:50 10° SSW 05:15:31 13° S 05:18:16 10° SSE visible
